GEFSMW_con_prob3kmehi_198.txt.gz
EHI
25 24 22 22 21 17 12 10 13 16 16 12 8 6 5 4 3 1 0 0 0 1 2 2 1 0 0 0 0 0 0 0 0 0 0 0 0 0 0 0 0 0 0
24 22 19 19 19 17 12 9 10 13 13 12 9 7 5 4 3 2 0 0 0 0 1 1 1 1 1 0 0 0 0 0 0 0 0 0 0 0 0 0 0 0 0
21 19 15 14 16 16 11 7 7 8 9 9 9 9 8 6 4 3 2 1 1 1 2 3 3 2 2 1 0 0 0 0 0 0 0 0 0 0 0 0 0 0 0
17 15 13 12 13 14 12 8 6 6 7 7 9 11 11 9 6 5 5 4 2 2 4 5 4 3 2 1 0 1 1 1 0 0 0 0 0 0 0 0 0 0 0
9 10 10 10 10 12 14 11 6 5 7 9 11 12 12 10 7 6 6 5 3 3 4 6 6 5 3 2 1 2 2 1 0 0 0 0 0 0 0 0 0 0 0
5 7 8 8 9 11 14 12 8 6 9 12 12 12 11 10 7 6 5 4 3 3 4 6 8 7 6 4 3 3 2 1 0 0 0 0 0 0 0 0 0 0 0
4 5 6 7 9 12 13 11 9 9 10 11 11 10 9 9 8 6 4 3 2 2 2 4 6 7 7 6 4 3 1 0 0 0 0 0 0 0 0 0 0 0 0
4 4 4 6 10 13 13 10 9 8 9 9 8 6 6 6 6 6 4 2 1 1 0 1 3 4 5 6 5 3 1 0 0 0 0 0 0 0 0 0 0 0 0
3 3 3 5 9 13 12 10 9 8 7 7 6 4 4 4 5 6 4 2 1 0 0 0 1 2 3 4 4 3 1 0 0 0 0 0 0 0 0 0 0 0 0
3 3 2 3 7 10 11 10 9 9 8 6 5 5 5 5 6 6 4 1 0 0 0 0 0 1 1 1 2 2 1 0 0 0 0 0 0 0 0 0 0 0 0
3 3 1 2 5 8 9 9 10 9 9 7 6 5 5 6 6 6 4 1 0 0 0 0 0 0 0 0 1 1 0 0 0 0 0 0 0 0 0 0 0 0 0
3 2 1 1 4 6 7 8 9 8 8 8 6 4 4 5 5 5 3 1 0 0 0 0 0 0 0 0 0 0 0 0 0 0 0 0 0 0 0 0 0 0 0
3 2 1 2 3 4 5 6 7 7 7 7 5 2 2 3 4 4 3 1 0 0 0 0 0 0 0 0 0 0 0 0 0 0 0 0 0 0 0 0 0 0 0
2 1 0 1 2 3 4 4 4 5 5 4 3 2 2 3 3 3 2 1 0 0 0 0 0 0 0 0 0 0 0 0 0 0 0 0 0 0 0 0 0 0 0
1 0 0 1 1 2 2 2 2 2 1 1 1 2 2 3 3 2 1 0 0 0 0 0 0 0 0 0 0 0 0 0 0 0 0 0 0 0 0 0 0 0 0
0 0 0 0 0 0 1 1 1 0 0 0 0 1 2 2 2 1 0 0 0 0 0 0 0 0 0 0 0 0 0 0 0 0 0 0 0 0 0 0 0 0 0
0 0 0 0 0 0 0 0 0 0 0 0 0 0 1 1 1 0 0 0 0 0 0 0 0 0 0 0 0 0 0 0 0 0 0 0 0 0 0 0 0 0 0
0 0 0 0 0 0 0 0 0 0 0 0 0 0 0 0 0 0 0 0 0 0 0 0 0 0 0 0 0 0 0 0 0 0 0 0 0 0 0 0 0 0 0
0 0 0 0 0 0 0 0 0 0 0 0 0 1 1 1 0 0 0 0 0 0 0 0 0 0 0 0 0 0 0 0 0 0 0 0 0 0 0 0 0 0 0
0 0 0 0 0 0 0 0 0 0 0 0 0 1 1 1 0 0 0 0 0 0 0 0 0 0 0 0 0 0 0 0 0 0 0 0 0 0 0 0 0 0 0
0 0 0 0 0 0 0 0 0 0 0 0 0 0 0 0 0 0 0 0 0 0 0 0 0 0 0 0 0 0 0 0 0 0 0 0 0 0 0 0 0 0 0
0 0 0 0 0 0 0 0 0 0 0 0 0 0 0 0 0 0 0 0 0 0 0 0 0 0 0 0 0 0 0 0 0 0 0 0 0 0 0 0 0 0 0
0 0 0 0 0 0 0 0 0 0 0 0 0 0 0 0 0 0 0 0 0 0 0 0 0 0 0 0 0 0 0 0 0 0 0 0 0 0 0 0 0 0 0
0 0 0 0 0 0 0 0 0 0 0 0 0 0 0 0 0 0 0 0 0 0 0 0 0 0 0 0 0 0 0 0 0 0 0 0 0 0 0 0 0 0 0
0 0 0 0 0 0 0 0 0 0 0 0 0 0 0 0 0 0 0 0 0 0 0 0 0 0 0 0 0 0 0 0 0 0 0 0 0 0 0 0 0 0 0
0 0 0 0 0 0 0 0 0 0 0 0 0 0 0 0 0 0 0 0 0 0 0 0 0 0 0 0 0 0 0 0 0 0 0 0 0 0 0 0 0 0 0

GEFSMW_con_prob3kmehi_204.txt.gz
EHI
23 23 26 29 32 37 38 33 29 29 30 29 27 25 22 17 12 9 11 12 11 7 4 4 4 4 3 2 3 5 5 5 4 2 1 0 0 0 0 0 0 0 0
24 24 25 27 29 34 35 31 28 28 28 26 25 24 23 19 15 12 12 12 11 8 5 4 5 5 5 4 5 6 6 5 4 3 2 0 0 0 0 0 0 0 0
25 24 24 25 26 28 28 28 28 27 26 25 25 25 24 20 17 16 15 13 10 8 7 6 6 7 7 6 6 7 6 5 5 6 4 2 0 0 0 0 0 0 0
24 22 21 22 22 21 22 25 26 26 25 25 26 26 24 20 19 19 18 15 11 9 8 6 8 9 9 8 7 7 6 6 7 8 7 5 2 1 0 0 0 0 0
21 19 16 15 14 14 16 20 21 22 22 23 24 25 22 19 19 19 19 16 12 9 7 5 6 8 8 8 8 7 6 7 8 8 8 7 5 3 1 0 0 1 1
17 16 13 10 9 9 10 13 16 17 19 21 22 21 19 18 17 17 15 13 11 9 6 4 5 5 6 7 7 6 5 6 7 8 9 9 7 4 1 0 0 1 2
15 15 13 11 10 10 8 10 13 15 16 18 17 16 17 16 15 12 10 10 9 8 5 4 4 4 4 5 5 4 4 4 6 7 9 9 8 4 2 1 1 1 1
13 12 12 12 11 10 10 11 15 17 16 14 13 13 15 14 12 10 9 8 8 7 6 4 5 4 4 4 4 4 3 4 6 7 9 9 7 5 4 3 2 1 0
10 10 11 12 10 9 11 13 16 19 16 13 11 11 12 11 9 8 9 9 9 8 6 5 5 6 5 4 4 3 4 5 6 7 7 7 6 5 4 3 2 1 0
9 9 10 10 8 6 7 9 13 15 15 12 10 10 10 9 8 8 9 9 9 7 6 6 7 7 6 4 4 4 4 5 6 6 5 5 5 4 4 3 2 1 1
7 7 8 9 7 4 4 6 8 10 12 11 9 8 9 9 8 7 7 8 7 7 6 6 6 6 6 5 5 5 4 4 5 5 4 3 3 3 4 3 1 0 0
4 5 7 7 5 3 4 5 5 8 10 10 8 8 8 8 7 7 7 7 7 6 6 6 5 4 5 5 5 4 3 3 3 3 2 1 1 2 4 4 1 0 0
3 5 6 5 2 1 3 4 5 6 9 9 8 7 7 7 6 6 6 6 6 6 6 5 4 3 4 4 4 3 3 3 1 1 1 0 0 2 4 4 1 0 0
3 4 4 2 0 0 2 4 5 6 9 10 8 7 6 7 6 6 6 5 4 4 5 4 3 3 3 3 3 3 3 2 1 0 0 0 0 2 3 3 2 1 0
3 3 2 0 0 0 1 4 4 5 8 9 8 7 7 8 7 6 6 4 3 3 4 3 3 3 3 3 2 2 1 1 0 0 0 0 0 1 2 2 2 1 1
3 2 1 0 0 0 1 3 3 4 6 8 7 6 6 7 6 6 5 4 4 4 4 3 3 3 2 1 1 1 0 0 0 0 0 0 0 0 1 1 1 1 0
3 2 1 0 0 1 2 2 1 2 4 5 5 4 4 4 4 4 4 5 5 6 5 4 3 3 1 0 0 0 0 0 0 1 2 1 1 0 0 0 0 0 0
2 1 1 0 0 1 1 1 0 0 2 3 3 3 3 3 4 4 5 6 6 6 6 4 3 2 1 0 0 0 0 0 1 2 3 3 3 1 0 0 0 0 0
3 2 1 1 0 0 0 0 0 0 0 1 1 2 3 4 5 6 6 7 7 7 6 4 3 3 1 0 0 0 0 0 2 3 3 3 2 1 0 0 0 0 0
3 2 1 1 0 1 1 1 1 0 0 0 1 2 3 5 6 6 7 8 9 8 6 4 4 4 3 1 0 0 0 0 2 3 3 1 1 0 0 0 0 0 0
1 1 1 2 2 2 3 4 3 2 1 1 2 2 3 4 5 6 7 8 9 8 6 5 5 5 3 1 0 0 0 0 1 2 2 1 0 0 0 0 0 0 0
0 0 1 2 3 3 4 5 4 3 2 3 4 3 2 2 3 5 7 7 6 6 5 4 5 4 2 0 0 0 0 0 1 1 2 1 0 0 0 0 0 0 0
1 0 1 1 3 4 4 5 4 4 3 4 4 4 3 2 3 5 5 4 4 4 3 2 2 1 0 0 0 0 0 0 0 0 1 1 0 0 0 0 0 0 0
2 1 1 1 3 3 4 4 4 3 3 3 3 3 2 2 3 3 3 3 3 2 1 0 0 0 0 0 0 0 0 0 0 0 0 0 0 0 0 0 0 0 0
3 3 2 3 3 3 3 3 3 2 2 2 1 1 1 1 1 2 2 1 2 1 0 0 0 0 0 0 0 0 0 0 0 0 0 0 0 0 0 0 0 0 0
3 3 3 3 3 3 3 3 2 1 1 1 0 0 0 0 1 2 1 1 1 0 0 0 0 0 0 0 0 0 0 0 0 0 0 0 0 0 0 0 0 0 0

GEFSMW_con_prob3kmehi_210.txt.gz
EHI
37 37 37 41 48 53 55 53 47 42 40 38 37 37 38 37 36 37 37 36 36 34 29 22 20 19 19 18 15 13 12 11 8 3 2 3 3 4 5 5 5 4 5
38 39 39 40 45 50 51 49 45 41 40 39 37 36 36 36 35 35 35 35 34 32 27 22 19 18 18 17 15 15 14 11 8 5 3 3 3 3 3 4 4 4 4
37 39 38 36 38 43 45 44 41 39 39 38 36 34 34 34 34 34 33 31 30 29 26 22 19 17 17 15 15 16 15 11 9 7 5 4 3 2 2 3 3 4 5
35 37 37 34 32 34 36 38 37 36 35 34 33 32 30 30 31 31 30 27 26 25 23 22 19 17 16 15 15 15 13 11 9 7 5 4 3 2 2 2 3 4 5
34 36 37 34 28 26 26 29 32 32 31 30 30 29 27 25 25 26 26 25 23 23 22 20 18 16 15 14 14 13 11 9 8 6 5 4 4 3 2 2 2 3 3
31 34 35 31 25 20 17 18 23 25 25 24 25 27 26 23 22 22 23 23 23 23 21 18 16 14 12 11 11 11 10 8 7 5 4 4 4 4 2 1 1 1 1
26 27 29 27 22 18 13 13 16 19 18 18 20 25 25 22 19 20 22 22 21 21 19 16 14 11 8 8 8 9 8 7 7 6 5 4 4 4 2 1 0 0 0
19 19 21 22 20 18 15 14 16 16 14 13 16 20 22 20 17 17 19 19 18 18 16 14 11 8 7 6 7 7 7 7 7 7 6 5 4 4 2 1 1 0 0
12 13 16 18 17 17 15 15 15 13 11 10 10 12 15 15 14 14 16 16 15 15 14 13 11 9 7 6 6 6 6 7 7 7 6 6 5 4 3 3 2 2 1
8 11 14 16 16 14 13 13 13 10 8 7 5 6 8 9 10 12 14 15 13 12 12 12 11 9 7 6 6 6 6 6 6 6 6 6 6 5 4 5 4 3 3
8 10 13 15 13 11 11 11 9 7 6 5 5 5 6 6 8 10 13 13 12 11 11 11 10 9 7 6 6 6 6 6 6 6 6 6 6 6 6 5 4 4 4
6 7 10 12 10 8 8 7 5 5 5 6 6 7 7 7 7 9 10 11 12 11 11 10 10 9 7 6 6 6 6 6 6 6 6 6 6 6 5 4 3 3 3
5 6 8 9 8 7 6 3 3 4 5 6 6 6 7 7 8 9 9 10 10 11 10 9 9 9 6 5 4 4 4 4 4 4 5 6 5 4 2 2 3 3 3
6 7 8 7 6 5 3 2 3 4 5 4 4 4 5 6 7 8 8 9 9 9 9 8 8 7 5 4 4 3 3 3 3 3 4 4 3 2 1 1 3 3 2
8 8 8 6 4 2 1 1 2 4 5 4 3 3 4 6 6 7 7 7 8 9 9 8 7 6 5 4 4 4 3 3 3 3 2 2 1 0 0 1 2 2 1
6 5 4 4 3 2 1 0 1 3 5 4 3 3 4 6 6 6 7 7 8 8 8 7 6 5 4 3 3 3 3 3 3 3 1 0 0 0 0 1 1 1 0
3 3 3 3 3 3 2 1 1 2 4 4 3 3 4 5 6 6 6 7 7 7 6 5 4 4 3 2 2 3 3 3 3 2 1 1 1 1 0 0 0 0 0
4 3 3 4 4 3 3 3 1 1 3 3 3 3 3 4 5 5 5 5 5 5 4 4 3 3 1 0 1 2 3 3 2 1 1 2 3 2 0 0 0 0 0
6 5 4 3 3 4 4 3 1 1 2 2 2 1 1 2 3 3 3 3 4 4 4 4 3 2 1 0 0 1 2 2 1 0 0 1 2 1 0 0 0 0 0
6 5 3 2 3 5 5 4 2 1 1 1 1 1 1 2 1 1 2 3 3 3 4 3 3 2 1 0 0 1 1 1 0 0 0 0 0 0 0 0 0 0 0
3 3 1 1 3 4 5 4 2 1 1 1 2 3 3 2 2 1 2 3 3 3 3 4 3 2 1 0 0 0 0 0 0 0 0 0 0 0 0 0 0 0 0
1 1 0 1 2 4 4 3 2 2 2 2 2 2 2 3 3 2 3 4 4 4 4 4 4 2 1 0 0 0 0 0 0 0 0 0 0 0 0 0 0 0 0
1 1 0 1 2 3 2 1 2 2 2 2 2 1 1 3 4 4 4 5 5 4 3 4 3 2 1 0 0 0 0 0 0 0 0 0 0 0 0 0 0 0 0
3 3 2 1 2 3 2 1 1 1 1 2 1 0 1 2 4 4 4 4 4 4 3 3 3 2 1 0 0 0 0 0 0 0 0 0 0 0 0 0 0 0 0
4 4 4 2 1 2 2 1 0 0 0 1 1 0 1 2 3 3 3 3 2 2 2 2 2 2 1 0 0 0 0 0 0 0 0 0 0 0 0 0 0 0 0
4 5 5 3 1 1 2 1 0 0 0 0 0 0 1 3 3 2 1 1 1 1 1 1 1 1 0 0 0 0 0 0 0 0 0 0 0 0 0 0 0 0 0

GEFSMW_con_prob3kmehi_216.txt.gz
EHI
22 23 24 25 26 25 25 25 24 23 23 25 24 20 16 13 11 11 8 5 4 4 4 3 3 2 0 0 0 0 0 0 0 0 0 0 0 0 0 0 0 0 0
24 24 22 22 24 24 23 24 24 24 24 24 22 18 15 15 13 12 9 7 6 6 4 3 2 1 0 0 0 0 0 0 0 0 0 0 0 0 0 0 0 0 0
25 23 20 19 20 19 19 22 23 24 23 22 19 16 15 16 14 11 9 8 9 9 7 4 2 0 0 0 0 0 1 1 0 0 0 0 0 0 0 0 0 0 0
23 22 20 18 16 15 15 17 19 20 20 18 16 13 13 14 12 8 7 8 10 11 10 6 2 1 0 0 0 0 1 1 1 1 0 0 0 0 0 0 0 0 0
21 19 17 15 13 11 11 12 14 15 15 14 13 11 11 11 8 6 6 7 9 11 10 7 4 3 1 0 0 0 0 1 2 1 0 0 0 0 0 0 0 0 0
17 15 13 11 9 8 7 8 10 12 11 10 10 9 8 7 6 5 5 6 8 8 8 6 5 5 3 1 1 0 0 1 1 1 0 0 0 0 0 0 0 0 0
11 10 9 8 7 6 6 6 8 9 8 8 8 7 5 4 4 3 4 5 6 6 5 5 5 6 5 4 2 1 0 0 0 0 0 0 0 0 0 0 0 0 0
5 5 6 7 6 6 5 5 4 4 5 6 6 5 4 3 3 1 1 3 4 3 3 3 4 6 6 5 4 2 1 0 0 0 0 0 0 0 0 0 0 0 0
1 1 3 4 4 4 3 2 2 2 2 3 3 2 2 2 2 1 0 1 1 1 1 2 4 5 6 6 4 3 2 1 0 0 0 0 0 0 0 0 0 0 0
0 0 1 1 1 1 1 0 1 1 1 1 1 1 1 1 1 0 0 0 0 0 0 2 3 4 5 5 4 3 3 3 1 0 0 0 0 0 0 0 0 0 0
0 0 0 0 0 0 0 0 0 0 0 0 1 2 2 1 0 0 0 0 0 0 0 2 3 4 4 4 3 3 3 3 2 1 1 0 0 0 0 0 0 0 0
0 0 0 0 0 0 0 0 0 0 0 0 1 2 3 2 1 1 1 1 0 0 0 1 2 3 3 3 3 3 4 3 3 3 2 1 0 0 0 0 0 0 0
0 0 0 0 0 0 0 0 0 0 0 0 1 2 3 3 3 2 2 2 1 0 0 0 2 3 3 3 2 2 3 3 2 2 2 1 0 0 0 0 0 0 0
0 0 0 0 0 0 0 0 0 0 0 0 0 1 1 3 3 3 3 3 2 1 1 2 3 4 4 3 1 1 1 1 1 1 1 0 0 0 0 0 0 0 0
0 0 0 0 0 0 0 0 0 0 0 0 0 0 1 2 3 3 3 3 3 2 2 4 5 5 4 3 2 1 0 0 0 0 0 0 0 0 0 0 0 0 0
0 0 0 0 0 0 0 0 0 0 0 0 0 0 0 1 2 3 3 3 3 2 2 3 4 4 3 3 2 2 1 1 0 0 0 0 0 0 0 0 0 0 0
0 0 0 0 0 0 0 0 0 0 0 0 0 0 0 0 1 1 2 2 1 1 2 3 3 3 3 1 1 1 1 1 1 1 1 0 0 0 0 0 0 0 0
0 0 0 0 0 0 0 0 0 0 0 0 0 0 0 0 0 0 1 1 1 1 3 3 3 3 2 1 0 0 1 1 1 1 1 0 0 0 0 0 0 0 0
0 0 0 0 0 0 0 0 0 0 0 0 0 0 0 0 0 0 0 1 2 3 3 3 3 3 2 1 0 1 2 2 1 0 0 0 0 0 0 0 0 0 0
0 0 0 0 0 0 0 0 0 0 0 0 0 0 0 0 0 0 0 1 2 3 3 3 3 3 2 1 0 1 2 2 1 0 0 0 0 0 0 0 0 0 0
0 0 0 0 0 0 0 0 0 0 0 0 0 0 0 0 0 0 0 1 1 2 3 3 3 2 1 0 0 1 2 2 1 0 0 0 0 0 0 0 0 0 0
0 0 0 0 0 0 0 0 0 0 0 0 0 0 0 0 0 0 0 0 0 1 2 2 1 1 0 0 0 1 2 2 1 0 0 0 0 0 0 0 0 0 0
0 0 0 0 0 0 0 0 0 0 0 0 0 0 0 0 0 0 0 0 0 0 1 1 0 0 0 0 0 0 1 1 0 0 0 0 0 0 0 0 0 0 0
0 0 0 0 0 0 0 0 0 0 0 0 0 0 0 0 0 0 0 0 0 0 0 0 0 0 0 0 0 0 0 0 0 0 0 0 0 0 0 0 0 0 0
0 0 0 0 0 0 0 0 0 0 0 0 0 0 0 0 0 0 0 0 0 0 0 0 0 0 0 0 0 0 0 0 0 0 0 0 0 0 0 0 0 0 0
0 0 0 0 0 0 0 0 0 0 0 0 0 0 0 0 0 0 0 0 0 0 0 0 0 0 0 0 0 0 0 0 0 0 0 0 0 0 0 0 0 0 0

GEFSMW_con_prob3kmehi_222.txt.gz
EHI
11 9 9 11 11 11 10 9 9 7 7 7 7 6 6 4 3 3 3 3 3 2 2 3 2 1 1 0 0 0 0 0 0 0 0 0 0 0 0 0 0 0 0
12 11 10 9 9 9 9 8 8 8 7 7 6 6 6 4 4 3 3 3 2 2 3 3 2 1 1 1 0 0 0 0 0 0 0 0 0 0 0 0 0 0 0
11 11 10 8 8 7 7 7 7 8 7 5 5 6 5 4 3 3 2 2 1 2 3 3 2 1 1 1 0 0 0 0 0 0 0 0 0 0 0 0 0 0 0
9 9 9 7 6 5 5 5 6 6 4 3 4 4 3 2 1 1 1 1 0 1 2 3 2 1 0 0 0 0 0 0 0 0 0 0 0 0 0 0 0 0 0
7 7 7 6 4 3 3 4 4 4 2 1 2 2 1 0 0 0 0 0 0 0 1 2 1 0 0 0 0 0 0 0 0 0 0 0 0 0 0 0 0 0 0
6 6 6 4 2 1 2 2 2 1 0 0 1 1 0 0 0 0 0 0 0 0 0 0 0 0 0 0 0 0 0 0 0 0 0 0 0 0 0 0 0 0 0
5 4 4 3 1 0 1 1 1 0 0 0 0 0 0 0 0 0 0 0 0 0 0 0 0 0 0 0 0 0 0 0 0 0 0 0 0 0 0 0 0 0 0
2 2 2 2 1 0 0 1 1 1 0 0 0 0 0 0 0 0 0 0 0 0 0 0 0 0 0 0 0 0 0 0 0 0 0 0 0 0 0 0 0 0 0
0 1 1 1 0 0 0 1 2 1 0 0 0 0 0 0 0 0 0 0 0 0 0 0 0 0 0 0 0 0 0 0 0 0 0 0 0 0 0 0 0 0 0
0 0 0 0 0 0 0 1 2 1 0 0 0 0 0 0 0 0 0 0 0 0 0 0 0 0 0 0 0 0 0 0 0 0 0 0 0 0 0 0 0 0 0
0 0 0 0 0 0 0 1 1 0 0 0 0 0 0 0 0 0 0 0 0 0 0 0 0 0 0 0 0 0 0 0 0 0 0 0 0 0 0 0 0 0 0
0 0 0 0 0 0 0 0 0 0 0 0 0 0 0 0 0 0 0 0 0 0 0 0 0 0 0 0 0 0 0 0 0 0 0 1 1 1 0 0 0 0 0
0 0 0 0 0 0 0 0 0 0 0 0 0 0 0 0 0 0 0 0 0 0 0 0 0 0 0 0 0 0 0 0 0 0 0 1 2 2 1 0 0 0 0
0 0 0 0 0 0 0 0 0 0 0 0 0 0 0 0 0 0 0 0 0 0 0 0 0 0 0 1 1 0 0 0 0 0 0 0 1 2 2 1 0 0 0
0 0 0 0 0 0 0 0 0 0 0 0 0 0 0 0 0 0 0 0 0 0 0 0 0 0 0 1 1 1 1 1 0 0 0 0 0 1 2 1 0 0 0
0 0 0 0 0 0 0 0 0 0 0 0 0 0 0 0 0 0 0 0 0 0 0 0 0 0 0 1 1 2 2 2 1 0 0 0 0 1 1 0 0 0 0
0 0 0 0 0 0 0 0 0 0 0 0 0 0 0 0 0 0 0 0 0 0 0 0 0 0 0 0 0 1 2 3 2 1 0 0 0 0 0 0 0 0 0
0 0 0 0 0 0 0 0 0 0 0 0 0 0 0 0 0 0 0 0 0 0 0 0 0 0 0 0 0 0 1 2 2 1 0 0 0 0 0 0 0 0 0
0 0 0 0 0 0 0 0 0 0 0 0 0 0 0 0 0 0 0 0 0 0 0 0 0 0 0 0 0 0 1 1 1 0 0 0 0 0 0 0 0 0 0
0 0 0 0 0 0 0 0 0 0 0 0 0 0 0 0 0 0 0 0 0 0 0 0 0 0 0 0 0 0 0 1 1 0 0 0 0 0 0 0 0 0 0
0 0 0 0 0 0 0 0 0 0 0 0 0 0 0 0 0 0 0 0 0 0 0 0 0 0 0 0 0 0 0 0 1 0 0 0 0 0 0 0 0 0 0
0 0 0 0 0 0 0 0 0 0 0 0 0 0 0 0 0 0 0 0 0 0 0 0 0 0 0 0 0 0 0 0 0 0 0 0 0 0 0 0 0 0 0
0 0 0 0 0 0 0 0 0 0 0 0 0 0 0 0 0 0 0 0 0 0 0 0 0 0 0 0 0 0 0 0 0 0 0 0 0 0 0 0 0 0 0
0 0 0 0 0 0 0 0 0 0 0 0 0 0 0 0 0 0 0 0 0 0 0 0 0 0 0 0 0 0 0 0 0 0 0 0 0 0 0 0 0 0 0
0 0 0 0 0 0 0 0 0 0 0 0 0 0 0 0 0 0 0 0 0 0 0 0 0 0 0 0 0 0 0 0 0 0 0 0 0 0 0 0 0 0 0
0 0 0 0 0 0 0 0 0 0 0 0 0 0 0 0 0 0 0 0 0 0 0 0 0 0 0 0 0 0 0 0 0 0 0 0 0 0 0 0 0 0 0

GEFSMW_con_prob3kmehi_228.txt.gz
EHI
15 15 15 15 14 13 14 14 15 17 19 19 20 20 18 16 15 15 16 17 18 16 13 13 14 14 11 10 10 7 3 2 3 4 4 3 3 3 2 2 2 1 1
14 16 18 18 15 12 11 11 11 13 17 18 20 20 19 16 14 14 15 17 17 16 13 12 13 13 12 10 9 7 3 1 1 3 3 2 2 2 1 1 1 1 2
14 16 18 19 16 11 9 6 7 9 13 15 17 17 17 15 14 14 15 16 15 14 12 11 10 11 11 10 8 7 4 2 1 2 2 1 1 1 0 0 1 2 3
14 14 15 17 15 11 8 7 7 8 9 11 13 14 13 12 12 11 12 14 14 12 11 11 10 9 9 8 7 6 5 2 1 1 1 1 1 0 0 0 1 2 2
12 11 13 14 13 10 9 9 9 7 7 8 10 12 11 9 8 8 10 12 13 11 9 9 10 10 9 8 7 7 5 3 1 0 1 1 1 0 0 0 1 1 1
7 8 10 12 12 10 9 9 8 7 6 7 9 10 10 7 6 7 9 11 11 10 8 8 9 10 9 9 9 8 6 4 2 2 1 1 1 0 0 0 0 0 0
4 4 7 11 11 8 7 6 6 6 6 6 6 7 6 5 4 5 7 9 10 8 7 6 6 7 8 9 9 9 8 6 5 3 1 1 1 1 1 0 0 0 0
3 3 5 7 8 6 4 4 5 6 5 5 4 4 3 3 3 4 5 7 7 5 4 4 4 5 6 7 8 9 9 8 6 4 3 2 2 3 3 2 2 1 0
2 3 3 3 4 4 5 5 5 5 4 3 3 3 2 2 3 4 4 5 4 3 2 3 3 4 5 6 7 8 9 9 7 5 3 4 5 6 6 4 3 2 1
1 2 2 1 2 4 5 6 5 4 3 3 4 3 2 2 3 4 4 3 3 3 3 3 3 3 4 5 6 6 7 7 6 5 4 4 5 7 8 5 4 4 4
1 2 2 1 1 2 4 5 4 2 1 1 2 2 1 1 3 4 4 3 2 3 3 3 3 3 3 2 3 4 4 5 4 3 3 3 4 6 6 5 5 7 7
0 1 1 0 0 1 2 3 2 0 0 0 1 1 0 0 1 3 3 2 2 3 3 3 1 1 2 2 1 2 3 3 2 1 1 1 1 3 3 3 4 6 8
0 0 0 0 0 1 2 2 1 0 0 0 0 1 1 1 1 1 1 2 3 3 3 2 1 1 2 3 2 2 3 3 2 0 0 0 0 1 1 1 2 4 6
0 1 1 1 2 1 1 1 0 1 1 1 0 1 2 2 2 2 2 2 2 2 2 2 1 0 1 2 3 3 3 3 2 1 0 0 0 0 0 1 2 3 4
1 1 2 3 4 3 1 0 0 1 1 1 0 1 2 2 3 3 2 1 1 2 1 1 0 0 0 1 2 3 3 3 3 1 0 0 0 0 0 1 2 3 4
0 1 3 5 7 5 3 1 1 1 1 0 0 0 0 1 2 2 2 2 2 2 2 1 0 0 0 0 1 2 3 3 3 2 1 0 0 0 0 0 1 2 3
0 1 4 7 9 8 6 3 1 0 0 0 0 0 0 0 1 1 1 2 3 3 3 2 0 0 0 0 0 1 2 3 3 2 1 0 0 1 1 1 1 2 2
1 3 6 9 10 9 7 4 1 0 0 0 0 0 0 0 0 0 1 2 3 3 3 1 0 0 0 0 0 0 1 2 2 2 1 0 1 2 2 3 3 3 2
2 3 5 7 9 8 6 3 1 0 0 0 0 0 0 0 0 0 1 2 3 3 2 1 0 0 0 0 0 0 0 1 1 1 0 0 2 3 3 3 4 4 3
2 3 3 3 6 5 4 2 1 0 0 0 0 0 0 0 0 0 0 1 2 2 1 0 0 0 0 0 0 0 0 0 0 0 0 1 2 2 2 2 3 3 3
1 2 1 1 2 2 1 1 0 0 0 0 0 0 0 0 0 0 0 0 1 1 0 0 0 0 0 0 0 0 0 0 0 1 1 2 2 1 0 1 2 3 3
0 1 1 1 1 1 1 0 0 0 0 0 0 0 0 0 0 0 0 0 0 0 0 1 0 0 0 0 0 0 0 0 0 1 2 2 1 0 0 0 1 2 1
1 1 1 2 2 2 2 1 0 0 0 0 0 0 0 0 0 0 0 0 0 0 0 0 0 0 0 0 0 0 0 0 0 1 1 1 0 0 0 0 0 0 0
2 2 3 3 3 3 2 1 0 0 0 0 0 0 0 0 0 0 0 0 0 0 0 0 0 0 0 1 0 0 0 0 0 0 0 0 0 0 0 0 0 0 0
4 4 3 3 3 3 3 1 0 0 0 0 0 0 0 0 0 0 0 0 0 0 0 0 0 0 0 0 0 0 0 0 0 0 0 0 0 0 0 0 0 0 0
4 4 4 3 3 3 3 2 1 0 0 0 0 0 0 0 0 0 0 0 0 0 0 0 0 0 0 0 0 0 0 0 0 0 0 0 0 0 0 0 0 0 0

GEFSMW_con_prob3kmehi_234.txt.gz
EHI
26 27 29 32 34 37 37 34 31 30 29 27 26 26 25 24 24 24 25 25 23 21 19 18 19 18 15 13 12 13 13 12 9 4 1 0 0 1 3 5 4 2 1
24 26 28 30 33 35 35 32 29 27 28 28 27 27 26 23 22 24 26 25 23 21 18 16 16 16 15 13 12 13 12 10 7 5 2 1 1 1 2 4 3 2 1
21 22 25 28 31 33 32 30 27 25 26 27 27 27 26 23 22 23 25 24 22 21 18 14 11 12 13 11 11 12 11 8 7 6 5 3 2 1 1 1 1 1 1
19 21 25 28 30 29 29 28 26 25 25 26 26 26 24 23 23 22 23 22 21 20 18 13 10 10 11 10 10 10 10 9 8 7 6 5 3 2 2 1 0 0 1
19 22 26 27 27 26 26 26 24 25 25 24 24 23 20 20 20 20 20 21 19 17 15 13 11 11 11 10 10 9 9 9 8 7 6 5 4 3 2 1 0 0 1
15 18 23 23 22 22 23 23 22 22 24 24 21 19 17 16 16 16 16 17 15 13 12 12 12 13 13 11 9 8 8 8 7 7 6 4 3 3 2 1 0 1 2
12 14 18 19 18 18 19 20 19 20 22 23 20 17 14 12 12 12 12 12 10 9 9 9 10 11 12 10 8 7 7 8 7 6 5 4 3 3 2 1 0 1 2
10 11 14 16 17 18 18 18 18 18 19 19 17 13 10 7 7 9 9 8 8 7 6 5 5 6 5 5 6 7 8 8 7 4 4 4 4 3 3 2 1 1 1
7 9 12 15 15 17 19 19 17 16 15 14 12 9 6 5 6 7 8 7 6 6 4 2 1 1 1 2 4 6 7 7 5 3 3 4 4 3 3 3 2 2 1
6 8 11 12 11 11 14 16 16 13 11 10 8 6 6 6 6 7 8 7 5 4 2 1 0 0 1 2 3 4 4 4 4 3 2 3 3 3 3 3 3 3 3
5 7 9 9 7 6 7 10 11 10 8 7 5 4 5 6 7 7 7 6 5 3 1 1 1 2 2 3 2 1 1 3 3 2 1 2 2 2 3 2 2 3 3
5 6 7 7 6 5 5 6 7 6 4 3 2 2 3 4 5 7 7 7 6 4 3 3 4 4 2 2 1 1 1 2 3 1 0 1 2 2 2 2 2 3 3
5 5 5 6 7 6 5 6 6 4 3 2 2 2 3 3 4 5 7 7 6 6 5 4 5 4 2 0 0 0 0 1 2 1 1 2 2 2 1 2 3 3 3
4 4 5 7 9 7 7 6 5 4 4 4 3 4 5 5 4 4 5 5 5 6 6 6 5 4 1 0 0 0 0 1 2 2 1 2 2 2 2 2 3 2 2
2 3 5 10 11 9 7 6 5 4 4 4 4 4 4 5 4 3 2 3 4 4 5 6 5 4 1 0 0 0 0 0 1 1 1 1 1 1 2 2 2 2 2
1 2 7 11 12 11 9 7 5 5 4 4 3 3 3 4 3 1 1 2 3 3 4 4 4 3 2 1 0 0 0 0 0 0 0 0 0 0 0 0 0 1 2
2 5 9 12 14 12 10 8 6 6 6 5 4 3 3 3 2 2 3 4 4 4 4 3 3 4 3 1 0 0 0 0 0 0 0 0 0 0 0 0 0 0 1
5 8 12 14 15 14 11 8 7 7 6 5 3 2 3 3 3 4 5 6 6 6 6 5 4 4 3 1 0 0 0 0 0 0 0 0 0 0 0 0 0 1 1
8 10 12 13 15 14 11 8 7 6 6 4 2 1 1 3 3 4 6 7 7 7 7 6 6 5 2 0 0 0 0 0 0 0 0 0 0 0 0 0 1 2 2
9 8 9 11 13 13 11 9 7 6 5 2 0 0 1 2 2 3 3 5 5 6 7 6 6 6 3 0 0 0 0 0 0 0 0 0 0 0 0 0 1 2 1
6 6 7 8 10 12 11 9 6 5 3 1 0 0 0 1 1 1 1 2 3 4 5 5 6 6 3 1 0 0 0 0 0 0 1 0 0 0 0 0 1 1 0
4 5 6 8 9 9 9 7 5 4 2 1 1 0 0 0 0 0 0 0 1 1 3 3 4 5 4 1 0 0 0 0 0 0 0 0 0 0 0 0 0 0 0
5 6 6 6 7 7 5 4 4 3 2 2 2 1 0 0 0 0 0 0 0 0 1 1 1 2 3 2 1 0 0 0 0 0 0 0 0 0 0 0 0 0 0
5 6 6 5 5 5 4 3 4 3 3 3 3 2 1 0 1 1 1 0 0 1 1 0 0 0 1 1 1 0 0 0 0 0 0 0 0 0 0 0 0 0 0
4 5 5 4 5 5 4 3 3 3 3 3 3 2 1 0 1 2 1 1 1 1 0 0 0 0 0 0 0 0 0 0 0 0 0 0 0 0 0 0 0 0 0
2 4 4 4 5 5 4 3 3 3 3 3 3 2 1 0 1 1 1 1 1 0 0 0 0 0 0 0 0 0 0 0 0 0 0 0 0 0 0 0 0 0 0

GEFSMW_con_prob3kmehi_240.txt.gz
EHI
17 18 21 22 20 20 18 15 15 17 19 20 20 18 14 11 11 10 8 5 4 4 4 3 2 0 0 0 0 1 2 2 1 0 0 0 1 1 1 0 0 0 0
17 20 23 21 19 20 20 17 16 17 17 17 18 17 14 12 12 11 9 7 5 4 4 4 2 1 0 0 0 0 1 1 1 0 0 0 0 0 0 0 0 0 0
19 21 22 19 16 18 18 17 16 16 15 16 16 16 14 13 12 11 10 8 6 5 4 4 3 1 0 0 0 0 0 1 0 0 0 0 0 0 0 0 0 0 0
17 19 18 15 13 13 14 14 14 13 14 14 15 15 14 12 10 9 8 6 6 6 5 4 3 2 1 0 0 0 1 1 1 0 0 0 0 0 0 0 0 0 0
11 13 13 10 9 10 10 11 10 10 11 11 12 12 10 8 7 8 6 4 3 4 5 4 3 2 1 0 0 0 1 1 1 0 0 0 0 0 0 0 0 0 0
6 8 8 7 7 8 8 8 8 7 7 7 7 7 5 4 5 6 5 2 1 2 3 3 2 2 1 0 0 0 0 1 1 0 0 0 0 0 0 0 0 0 0
4 6 7 6 6 6 6 7 7 6 4 3 4 4 2 2 3 5 3 1 0 0 1 1 1 1 0 0 0 0 0 0 0 0 0 0 0 0 0 0 0 0 0
4 6 6 6 5 4 4 5 6 5 4 3 3 2 1 1 2 3 2 1 0 0 0 0 0 0 0 0 0 0 0 0 0 0 0 0 0 0 0 0 0 0 0
5 6 6 6 4 3 3 4 5 4 3 3 2 1 0 0 1 1 1 0 0 0 0 0 0 0 0 0 0 0 0 0 0 0 0 0 0 0 0 0 0 0 0
6 6 6 5 4 3 3 3 2 2 1 1 2 1 0 0 0 0 0 0 0 0 0 0 0 0 0 0 0 0 0 0 0 0 0 0 0 0 0 0 0 0 0
6 6 5 4 3 3 3 2 1 0 0 0 0 0 0 0 0 0 0 0 0 0 0 0 0 0 0 0 0 0 0 0 0 0 0 0 0 0 0 0 0 0 0
6 5 4 4 4 4 4 3 1 0 0 0 0 0 0 0 0 0 0 0 0 0 0 0 0 0 0 0 0 0 0 0 0 0 0 0 0 0 0 0 0 0 0
4 4 4 4 5 5 5 3 1 0 0 0 0 0 0 0 0 0 0 0 0 0 0 0 0 0 0 0 0 0 0 0 0 0 0 0 0 0 0 0 0 0 0
3 3 3 3 4 4 4 2 1 0 0 0 0 0 0 0 0 0 0 0 0 0 0 0 0 0 0 0 0 0 0 0 0 0 0 0 0 0 0 0 0 0 0
3 2 1 1 1 1 1 1 0 0 0 0 0 0 0 0 0 0 0 0 0 0 0 0 0 0 0 0 0 0 0 0 0 0 0 0 0 0 0 0 0 0 0
2 1 0 0 0 0 0 0 0 0 0 0 0 0 0 0 0 0 0 0 0 0 0 0 0 0 0 0 0 0 0 0 0 0 0 0 0 0 0 0 0 0 0
2 1 0 0 0 0 0 0 0 0 0 0 0 0 0 0 0 0 0 0 0 0 0 0 0 0 0 0 0 0 0 0 0 0 0 0 0 0 0 0 0 0 0
3 2 1 0 0 0 0 0 0 0 0 0 0 0 0 0 0 0 0 0 0 0 0 0 0 0 0 0 0 0 0 0 0 0 0 0 0 0 0 0 0 0 0
3 2 1 1 1 0 1 1 0 0 0 0 0 0 0 0 0 0 0 0 0 0 0 0 0 0 0 0 0 0 0 0 0 0 0 0 0 0 0 0 0 0 0
2 3 3 2 1 1 1 1 0 0 0 0 0 0 0 0 0 0 0 0 0 0 0 0 0 0 0 0 0 0 0 0 0 0 0 0 0 0 0 0 0 0 0
2 2 2 2 1 0 1 1 0 0 0 0 0 0 0 0 0 0 0 0 0 0 0 0 0 0 0 0 0 0 0 0 0 0 0 0 0 0 0 0 0 0 0
1 1 1 1 0 0 0 0 0 0 0 0 0 0 0 0 0 0 0 0 0 0 0 0 0 0 0 0 0 0 0 0 0 0 0 0 0 0 0 0 0 0 0
0 0 0 0 0 0 0 0 0 0 0 0 0 0 0 0 0 0 0 0 0 0 0 0 0 0 0 0 0 0 0 0 0 0 0 0 0 0 0 0 0 0 0
0 0 0 0 0 0 0 0 0 0 0 0 0 0 0 0 0 0 0 0 0 0 0 0 0 0 0 0 0 0 0 0 0 0 0 0 0 0 0 0 0 0 0
0 0 0 0 0 0 0 0 0 0 0 0 0 0 0 0 0 0 0 0 0 0 0 0 0 0 0 0 0 0 0 0 0 0 0 0 0 0 0 0 0 0 0
0 0 0 0 0 0 0 0 0 0 0 0 0 0 0 0 0 0 0 0 0 0 0 0 0 0 0 0 0 0 0 0 0 0 0 0 0 0 0 0 0 0 0

GEFSMW_con_prob3kmehi_246.txt.gz
EHI
7 7 7 7 8 7 5 4 4 3 1 2 2 2 2 1 0 0 0 0 0 0 0 0 0 1 1 1 2 2 1 0 0 0 0 0 0 0 0 0 0 1 1
8 8 8 9 9 8 4 4 5 5 4 3 3 2 1 1 0 0 1 1 0 0 0 0 0 0 0 0 1 1 0 0 0 0 0 0 0 0 0 0 0 0 1
9 8 8 9 10 9 6 4 5 6 6 5 4 3 2 1 1 1 1 1 1 0 0 0 0 0 0 0 0 0 0 0 0 0 0 0 0 0 0 0 0 0 0
6 5 5 6 7 8 6 5 5 6 6 5 4 5 4 3 2 1 1 1 1 0 0 0 0 0 0 0 0 0 0 0 0 0 0 0 0 0 0 0 0 0 0
3 2 2 2 4 5 5 5 5 5 5 4 4 4 4 3 1 1 0 0 0 0 0 0 0 0 0 0 0 0 0 0 0 0 0 0 0 0 0 0 0 0 0
1 1 1 2 3 3 4 5 5 5 5 4 3 3 2 1 0 0 0 0 0 0 0 0 0 0 0 0 0 0 0 0 0 0 0 0 0 0 0 0 0 0 1
0 0 0 1 3 3 3 4 5 5 4 2 1 1 1 0 0 0 0 0 0 0 0 0 0 0 0 0 0 0 0 0 0 0 0 0 0 0 0 0 0 1 2
0 0 0 1 3 3 3 3 4 4 2 1 0 0 0 0 0 0 0 0 0 0 0 0 0 0 0 0 0 0 0 0 0 0 0 0 0 0 0 0 0 1 2
0 0 1 2 3 3 3 3 3 3 2 0 0 0 0 0 0 0 0 0 0 0 0 0 0 0 0 0 0 0 0 0 0 0 0 0 0 0 0 0 0 0 1
0 0 1 2 3 3 3 3 3 3 1 0 0 0 0 0 0 0 0 0 0 0 0 0 0 0 0 0 0 0 0 0 0 0 0 0 0 0 0 0 0 0 0
0 0 1 2 3 3 3 3 3 2 1 0 0 0 0 0 0 0 0 0 0 0 0 0 0 0 0 0 0 0 0 0 0 0 0 0 0 0 0 0 0 0 0
0 0 1 3 3 3 3 3 2 1 0 0 0 0 0 0 0 0 0 0 0 0 0 0 0 0 0 0 0 0 0 0 0 0 0 0 0 0 0 0 0 0 0
0 0 1 2 3 3 3 2 1 0 0 0 0 0 0 0 0 0 0 0 0 0 0 0 0 0 0 0 0 0 0 0 0 0 0 0 0 0 0 0 0 0 0
0 0 1 1 1 2 2 1 0 0 0 0 0 0 0 0 0 0 0 0 0 0 0 0 0 0 0 0 0 0 0 0 0 0 0 0 0 0 0 0 0 0 0
0 0 0 0 0 1 1 0 0 0 0 0 0 0 0 0 0 0 0 0 0 0 0 0 0 0 0 0 0 0 0 0 0 0 0 0 0 0 0 0 0 0 0
0 0 0 0 0 0 0 0 0 0 0 0 0 0 0 0 0 0 0 0 0 0 0 0 0 0 0 0 0 0 0 0 0 0 0 0 0 0 0 0 0 0 0
0 0 0 0 0 0 0 0 0 0 0 0 0 0 0 0 0 0 0 0 0 0 0 0 0 0 0 0 0 0 0 0 0 0 0 0 0 0 0 0 0 0 0
0 0 0 0 0 0 0 0 0 0 0 0 0 0 0 0 0 0 0 0 0 0 0 0 0 0 0 0 0 0 0 0 0 0 0 0 0 0 0 0 0 0 0
0 0 0 0 0 0 0 0 0 0 0 0 0 0 0 0 0 0 0 0 0 0 0 0 0 0 0 0 0 0 0 0 0 0 0 0 0 0 0 0 0 0 0
0 0 0 0 0 0 0 0 0 0 0 0 0 0 0 0 0 0 0 0 0 0 0 0 0 0 0 0 0 0 0 0 0 0 0 0 0 0 0 0 0 0 0
0 0 0 0 0 0 0 0 0 0 0 0 0 0 0 0 0 0 0 0 0 0 0 0 0 0 0 0 0 0 0 0 0 0 0 0 0 0 0 0 0 0 0
0 0 0 0 0 0 0 0 0 0 0 0 0 0 0 0 0 0 0 0 0 0 0 0 0 0 0 0 0 0 0 0 0 0 0 0 0 0 0 0 0 0 0
0 0 0 0 0 0 0 0 0 0 0 0 0 0 0 0 0 0 0 0 0 0 0 0 0 0 0 0 0 0 0 0 0 0 0 0 0 0 0 0 0 0 0
0 0 0 0 0 0 0 0 0 0 0 0 0 0 0 0 0 0 0 0 0 0 0 0 0 0 0 0 0 0 0 0 0 0 0 0 0 0 0 0 0 0 0
0 0 0 0 0 0 0 0 0 0 0 0 0 0 0 0 0 0 0 0 0 0 0 0 0 0 0 0 0 0 0 0 0 0 0 0 0 0 0 0 0 0 0
0 0 0 0 0 0 0 0 0 0 0 0 0 0 0 0 0 0 0 0 0 0 0 0 0 0 0 0 0 0 0 0 0 0 0 0 0 0 0 0 0 0 0

GEFSMW_con_prob3kmehi_252.txt.gz
EHI
13 13 14 17 19 17 14 15 18 20 16 11 9 9 9 8 6 5 4 2 0 1 2 3 3 3 3 2 4 6 5 3 3 5 5 4 4 4 4 3 3 2 3
14 14 15 17 19 18 16 16 19 19 15 11 9 8 8 9 8 7 5 3 1 1 1 2 2 2 2 3 4 5 5 4 4 5 5 4 4 4 4 3 3 3 4
14 14 14 16 18 18 17 19 21 19 13 9 8 7 8 9 9 8 6 3 1 1 1 2 2 3 4 5 4 5 4 4 4 3 3 3 3 3 3 3 3 4 5
10 10 11 13 13 14 15 18 20 18 12 9 8 7 8 8 8 8 7 5 3 2 3 4 5 6 8 7 6 4 2 2 2 2 2 2 2 1 2 3 3 4 5
5 6 7 9 9 8 10 14 17 17 14 11 9 9 9 8 8 8 8 8 7 6 5 6 7 9 10 8 5 3 1 1 1 2 2 2 1 0 1 2 3 4 4
3 3 3 5 6 5 6 9 13 15 15 13 12 11 10 9 8 7 7 9 9 7 5 4 6 8 7 5 3 2 1 1 2 3 3 2 1 0 1 2 2 3 4
2 1 1 3 4 5 5 6 9 13 14 14 13 12 11 10 8 6 6 6 6 4 3 3 4 4 3 2 1 1 1 1 2 3 3 2 1 0 1 1 1 2 3
2 1 0 1 2 4 5 5 7 10 12 13 12 12 11 10 8 6 4 4 3 1 1 2 2 2 1 0 0 0 0 1 2 2 3 2 1 0 1 1 0 1 2
1 0 0 0 2 3 5 6 7 8 9 10 10 9 9 9 8 6 3 2 2 1 1 1 1 1 0 0 0 0 0 0 1 2 2 2 1 0 0 0 0 0 1
0 0 0 1 2 3 4 5 6 6 6 7 6 6 7 8 7 5 3 1 1 1 1 0 0 0 0 0 0 1 0 0 0 1 1 1 0 0 0 0 0 0 0
0 1 1 2 3 3 4 6 6 5 4 4 4 5 5 5 5 5 3 1 0 0 1 0 0 0 0 0 0 0 0 0 0 0 0 0 0 0 1 0 0 1 2
2 2 2 2 3 3 5 6 6 5 4 3 4 4 3 3 3 3 2 1 0 0 0 0 0 0 0 0 0 0 0 0 0 0 0 0 0 0 0 0 1 3 3
4 4 4 4 4 5 6 6 6 6 4 3 2 2 1 1 1 1 1 0 0 0 0 0 0 0 0 0 0 0 0 0 0 0 0 0 0 0 0 0 1 3 3
4 5 6 6 6 6 6 6 6 5 3 2 1 0 0 0 0 0 0 0 0 0 0 0 0 0 0 0 0 0 0 0 0 0 0 0 0 1 0 0 2 2 2
4 5 6 6 6 6 6 5 4 3 2 1 0 0 0 0 0 0 0 0 0 0 0 0 0 0 0 0 0 0 0 0 0 0 0 0 0 0 0 0 1 2 2
2 5 6 6 6 6 6 4 3 3 2 1 0 0 0 0 0 0 0 0 0 0 0 0 0 0 0 0 0 0 0 0 0 0 0 0 0 0 0 0 0 1 1
2 4 5 6 6 6 5 4 3 3 2 1 0 0 0 0 0 0 0 1 1 1 1 1 0 0 0 0 0 0 0 0 0 0 0 0 0 0 0 0 0 0 1
3 4 5 6 7 7 7 5 4 4 3 1 0 0 0 0 0 0 1 3 4 3 2 1 0 0 0 0 0 0 0 0 0 0 0 0 0 0 0 0 0 0 0
5 5 6 6 8 9 9 8 7 5 3 1 0 0 0 0 0 1 2 4 5 4 3 1 0 0 0 0 0 0 0 0 0 1 0 0 0 0 0 0 0 0 0
6 6 5 5 7 9 10 9 9 7 4 2 1 1 1 0 1 2 3 3 4 3 1 0 0 0 0 0 0 0 0 0 0 0 0 0 0 0 0 0 0 0 0
6 6 4 4 6 9 10 9 9 8 6 4 3 3 2 1 1 2 3 3 2 1 0 0 0 0 0 0 0 0 0 0 0 0 0 0 0 0 0 0 0 0 0
6 5 4 4 6 8 9 9 8 7 6 5 4 4 4 2 2 3 3 2 1 0 0 0 0 0 0 0 0 0 0 0 0 0 0 0 0 0 0 0 0 0 0
5 4 4 4 5 7 8 7 7 7 7 7 6 5 5 4 3 3 2 1 0 0 0 0 0 0 0 0 0 0 0 0 0 0 0 0 0 0 0 0 0 0 0
6 5 5 5 6 6 7 7 7 8 8 8 6 5 4 4 3 3 1 0 0 0 0 0 0 0 0 0 0 0 0 0 0 0 0 0 0 0 0 0 0 0 0
10 8 7 6 6 7 7 7 8 8 9 7 5 4 3 3 3 3 1 0 0 0 0 0 0 0 0 0 0 0 0 0 0 0 0 0 0 0 0 0 0 0 0
11 11 9 7 6 7 8 8 8 8 8 6 4 3 3 3 3 3 2 1 0 0 0 0 0 0 0 0 0 0 0 0 0 0 0 0 0 0 0 0 0 0 0